• Join FlightAware (Why Join?)
  • Login
  • US Flag 
10:38AM EDT


 

Airport Tracker/Info


-or-


 

Live Flight TrackerFlight Track Log ✈ N6ZQ ✈ 04-Jan-2014 ✈ KXFL - KLCQ

Flight Track Log - Related Links

Times and Time Zones

All times are in EST time to prevent confusion due to time zone crossing. See the N6ZQ flight status page for this flight to view local times or setup timezone preferences in your user account.

Time Position Orientation Groundspeed Altitude Reporting Facility
EST Latitude Longitude Course Direction KTS MPH feet Rate Location/Type
02:41PM 29.4703 -81.1989 67° East 104 120 500  Level Jacksonville Center
02:41PM 29.4783 -81.1772 67° East 128 147 1,400 840 Climbing Jacksonville Center
02:42PM 29.5008 -81.1364 58° Northeast 163 188 1,900 300 Climbing Jacksonville Center
02:43PM 29.5272 -81.0953 54° Northeast 151 174 2,100 300 Climbing Jacksonville Center
02:44PM 29.5628 -81.0875 11° North 175 201 2,600 480 Climbing Jacksonville Center
02:45PM 29.5781 -81.1444 287° West 189 217 3,200 1,080 Climbing Jacksonville Center
02:46PM 29.5933 -81.1944 289° West 172 198 4,800 900 Climbing Jacksonville Center
02:47PM 29.6089 -81.2539 287° West 191 220 5,000 60 Climbing Jacksonville Center
02:48PM 29.6264 -81.3133 289° West 195 224 5,000  Level Jacksonville Center
02:49PM 29.6394 -81.3681 285° West 197 227 5,000  Level Jacksonville Center
02:50PM 29.6528 -81.4322 283° West 188 216 5,000  Level Jacksonville Center
02:51PM 29.6658 -81.4872 285° West 188 216 5,100 60 Climbing Jacksonville Center
02:52PM 29.6767 -81.5228 289° West 186 214 5,100  Level Jacksonville Center
02:53PM 29.7067 -81.5822 300° West 184 212 5,100 -60 Level Jacksonville Center
02:54PM 29.7342 -81.6369 300° West 187 215 5,000 -360 Descending Jacksonville Center
02:55PM 29.7619 -81.6939 299° West 207 238 4,400 -420 Descending Jacksonville Center
02:56PM 29.7875 -81.7486 298° West 215 247 4,200 -180 Descending Jacksonville Center
02:57PM 29.8150 -81.8081 298° West 205 236 4,100 -60 Descending Jacksonville Center
02:58PM 29.8364 -81.8678 292° West 202 232 4,100  Level Jacksonville Center
02:59PM 29.8578 -81.9228 294° West 208 239 4,100 -60 Level Jacksonville Center
03:00PM 29.8833 -81.9750 299° West 215 247 4,000 -60 Descending Jacksonville Center
03:01PM 29.9086 -82.0325 297° West 215 247 4,000  Level Jacksonville Center
03:02PM 29.9383 -82.0897 301° West 215 247 4,000  Level Jacksonville Center
03:03PM 29.9700 -82.1444 304° West 215 247 4,000  Level Jacksonville Center
03:04PM 29.9994 -82.2019 301° West 205 236 4,000  Level Jacksonville Center
03:05PM 30.0289 -82.2567 302° West 205 236 4,100  Climbing Jacksonville Center
03:06PM 30.0544 -82.3167 296° West 205 236 4,100 -120 Level Jacksonville Center
03:07PM 30.0797 -82.3742 297° West 205 236 3,900 -600 Descending Jacksonville Center
03:08PM 30.1092 -82.4364 299° West 205 236 3,000 -900 Descending Jacksonville Center